DAL547 KATL-TXKF

Flight info

Callsign DAL547
Flight time 2h 22m
Altitude 35000
Route GAIRY2 IRQ DCT DEDDY Y436 JAINS/M076F370 M326 JIMAC POPOP1
Aircraft A319/M-V/N

Departure

Time 2026-04-30 19:15
Airport Hartsfield Jackson Atlanta International Airport (KATL)

Arrival

Time 2026-04-30 21:37
Airport L.F. Wade International Airport (TXKF)
Time Latitude Longitude Altitude Speed Heading
2026-04-30 18:53 33.63883 -84.43875 1036 ft 0 kts 268°
2026-04-30 19:05 33.63883 -84.43871 1035 ft 2 kts 268°
2026-04-30 19:05 33.63885 -84.43825 1035 ft 3 kts 259°
2026-04-30 19:06 33.63900 -84.43789 1035 ft 1 kts 184°
2026-04-30 19:06 33.63903 -84.43789 1035 ft 0 kts 180°
2026-04-30 19:08 33.63885 -84.43789 1035 ft 6 kts 180°
2026-04-30 19:09 33.63764 -84.43790 1035 ft 9 kts 180°
2026-04-30 19:09 33.63701 -84.43789 1035 ft 9 kts 173°
2026-04-30 19:09 33.63664 -84.43686 1035 ft 23 kts 91°
2026-04-30 19:10 33.63665 -84.43246 1035 ft 25 kts 90°
2026-04-30 19:10 33.63664 -84.42848 1035 ft 24 kts 89°
2026-04-30 19:11 33.63654 -84.42655 1036 ft 23 kts 92°
2026-04-30 19:11 33.63656 -84.42282 1036 ft 22 kts 90°
2026-04-30 19:11 33.63655 -84.42099 1036 ft 22 kts 91°
2026-04-30 19:12 33.63654 -84.41921 1035 ft 21 kts 90°
2026-04-30 19:12 33.63655 -84.41741 1035 ft 21 kts 89°
2026-04-30 19:12 33.63656 -84.41563 1035 ft 21 kts 89°
2026-04-30 19:13 33.63657 -84.41217 1035 ft 20 kts 90°
2026-04-30 19:13 33.63657 -84.40910 1035 ft 16 kts 90°
2026-04-30 19:13 33.63596 -84.40833 1036 ft 14 kts 181°
2026-04-30 19:14 33.63503 -84.40835 1036 ft 13 kts 180°
2026-04-30 19:14 33.63472 -84.40889 1036 ft 0 kts 268°
2026-04-30 19:14 33.63472 -84.40913 1036 ft 15 kts 269°
2026-04-30 19:14 33.63473 -84.41355 1035 ft 86 kts 270°
2026-04-30 19:15 33.63468 -84.42337 1037 ft 142 kts 270°
2026-04-30 19:15 33.63453 -84.45045 1836 ft 167 kts 274°
2026-04-30 19:15 33.63370 -84.46427 2513 ft 166 kts 265°
2026-04-30 19:16 33.63091 -84.47867 2900 ft 186 kts 256°
2026-04-30 19:16 33.62564 -84.49362 3160 ft 210 kts 246°
2026-04-30 19:16 33.60996 -84.52709 4156 ft 248 kts 246°
2026-04-30 19:17 33.60209 -84.54633 4793 ft 265 kts 248°
2026-04-30 19:17 33.57903 -84.58176 6032 ft 287 kts 205°
2026-04-30 19:17 33.55903 -84.58645 6659 ft 291 kts 184°
2026-04-30 19:18 33.52464 -84.58677 7684 ft 292 kts 180°
2026-04-30 19:18 33.49848 -84.58518 8558 ft 293 kts 172°
2026-04-30 19:18 33.47946 -84.57600 9303 ft 301 kts 147°
2026-04-30 19:19 33.46434 -84.55779 9838 ft 312 kts 123°
2026-04-30 19:19 33.45709 -84.53357 10117 ft 314 kts 94°
2026-04-30 19:19 33.45672 -84.47888 11092 ft 338 kts 89°
2026-04-30 19:20 33.45665 -84.45047 11601 ft 349 kts 89°
2026-04-30 19:20 33.45650 -84.42107 12223 ft 355 kts 89°
2026-04-30 19:20 33.45608 -84.35995 13650 ft 362 kts 90°
2026-04-30 19:21 33.45638 -84.32974 14297 ft 364 kts 84°
2026-04-30 19:21 33.46129 -84.26865 15499 ft 370 kts 83°
2026-04-30 19:22 33.46632 -84.20639 16632 ft 378 kts 82°
2026-04-30 19:22 33.47380 -84.11107 18391 ft 387 kts 82°
2026-04-30 19:23 33.48136 -84.01420 19977 ft 391 kts 82°
2026-04-30 19:24 33.48554 -83.96052 20906 ft 391 kts 82°
2026-04-30 19:24 33.48809 -83.92800 21486 ft 390 kts 82°
2026-04-30 19:24 33.49326 -83.86119 21938 ft 415 kts 83°
2026-04-30 19:25 33.50146 -83.75330 21951 ft 460 kts 83°
2026-04-30 19:26 33.50713 -83.67653 22879 ft 464 kts 83°
2026-04-30 19:26 33.51383 -83.59923 23827 ft 467 kts 79°
2026-04-30 19:26 33.51889 -83.56074 24243 ft 468 kts 77°
2026-04-30 19:27 33.53083 -83.48357 25066 ft 471 kts 76°
2026-04-30 19:27 33.54266 -83.40579 25868 ft 476 kts 77°
2026-04-30 19:28 33.54810 -83.36708 26272 ft 478 kts 77°
2026-04-30 19:28 33.55877 -83.28765 27114 ft 480 kts 77°
2026-04-30 19:29 33.56940 -83.20825 27981 ft 482 kts 77°
2026-04-30 19:29 33.57478 -83.16851 28422 ft 482 kts 77°
2026-04-30 19:30 33.59090 -83.04984 29787 ft 481 kts 77°
2026-04-30 19:30 33.60159 -82.97068 30614 ft 479 kts 76°
2026-04-30 19:31 33.61230 -82.89094 30915 ft 493 kts 76°
2026-04-30 19:31 33.61784 -82.84989 30923 ft 505 kts 76°
2026-04-30 19:31 33.62921 -82.76508 30925 ft 525 kts 77°
2026-04-30 19:32 33.63497 -82.72136 30916 ft 536 kts 77°
2026-04-30 19:32 33.64081 -82.67675 30921 ft 545 kts 77°
2026-04-30 19:32 33.64670 -82.63158 31136 ft 547 kts 77°
2026-04-30 19:32 33.65254 -82.58648 31554 ft 545 kts 77°
2026-04-30 19:33 33.65836 -82.54166 31975 ft 543 kts 76°
2026-04-30 19:33 33.66411 -82.49744 32389 ft 540 kts 76°
2026-04-30 19:33 33.66991 -82.45287 32817 ft 538 kts 76°
2026-04-30 19:33 33.67565 -82.40867 33252 ft 535 kts 75°
2026-04-30 19:34 33.68136 -82.36457 33686 ft 533 kts 75°
2026-04-30 19:34 33.68707 -82.32019 34105 ft 529 kts 75°
2026-04-30 19:34 33.69761 -82.23325 34792 ft 527 kts 80°
2026-04-30 19:35 33.69824 -82.18894 34888 ft 537 kts 90°
2026-04-30 19:35 33.69348 -82.14405 34909 ft 546 kts 101°
2026-04-30 19:35 33.68329 -82.09982 34905 ft 552 kts 111°
2026-04-30 19:36 33.65251 -82.01475 35281 ft 549 kts 116°
2026-04-30 19:36 33.63694 -81.97296 35678 ft 544 kts 116°
2026-04-30 19:36 33.60616 -81.89030 36531 ft 533 kts 116°
2026-04-30 19:37 33.59085 -81.84924 36840 ft 531 kts 116°
2026-04-30 19:37 33.57567 -81.80866 36917 ft 535 kts 116°
2026-04-30 19:37 33.54465 -81.72606 36922 ft 543 kts 116°
2026-04-30 19:38 33.51351 -81.64340 36912 ft 544 kts 116°
2026-04-30 19:38 33.48221 -81.56027 36906 ft 543 kts 115°
2026-04-30 19:39 33.45111 -81.47777 36896 ft 543 kts 116°
2026-04-30 19:39 33.41986 -81.39532 36899 ft 543 kts 116°
2026-04-30 19:40 33.38842 -81.31252 36902 ft 543 kts 116°
2026-04-30 19:40 33.35683 -81.22971 36905 ft 542 kts 116°
2026-04-30 19:41 33.32532 -81.14712 36905 ft 542 kts 115°
2026-04-30 19:41 33.29399 -81.06522 36912 ft 541 kts 116°
2026-04-30 19:42 33.26262 -80.98347 36914 ft 541 kts 116°
2026-04-30 19:42 33.23646 -80.91544 36914 ft 541 kts 116°
2026-04-30 19:43 33.20408 -80.83145 36913 ft 541 kts 116°
2026-04-30 19:44 33.15645 -80.70816 36905 ft 540 kts 116°
2026-04-30 19:44 33.12464 -80.62621 36908 ft 540 kts 115°
2026-04-30 19:45 33.09330 -80.54538 36908 ft 540 kts 115°
2026-04-30 19:45 33.06144 -80.46351 36899 ft 540 kts 115°
2026-04-30 19:46 33.02989 -80.38265 36897 ft 539 kts 116°
2026-04-30 19:46 32.99813 -80.30172 36897 ft 539 kts 116°
2026-04-30 19:47 32.96636 -80.22079 36898 ft 538 kts 116°
2026-04-30 19:47 32.93465 -80.14002 36914 ft 538 kts 116°
2026-04-30 19:48 32.90442 -80.06333 36907 ft 537 kts 116°
2026-04-30 19:48 32.87370 -79.98202 36912 ft 537 kts 112°
2026-04-30 19:49 32.84635 -79.89928 36906 ft 537 kts 110°
2026-04-30 19:49 32.80612 -79.77496 36907 ft 536 kts 111°
2026-04-30 19:50 32.77812 -79.69279 36907 ft 536 kts 112°
2026-04-30 19:50 32.74988 -79.61098 36907 ft 535 kts 112°
2026-04-30 19:51 32.72221 -79.52923 36902 ft 535 kts 110°
2026-04-30 19:51 32.69620 -79.44653 36905 ft 534 kts 109°
2026-04-30 19:52 32.67077 -79.36367 36901 ft 534 kts 109°
2026-04-30 19:52 32.64492 -79.28120 36893 ft 533 kts 110°
2026-04-30 19:53 32.61854 -79.19879 36895 ft 533 kts 110°
2026-04-30 19:53 32.59231 -79.11715 36890 ft 533 kts 110°
2026-04-30 19:54 32.56598 -79.03484 36892 ft 533 kts 110°
2026-04-30 19:54 32.53968 -78.95271 36883 ft 533 kts 110°
2026-04-30 19:55 32.51332 -78.87063 36885 ft 533 kts 110°
2026-04-30 19:55 32.48687 -78.78864 36882 ft 532 kts 110°
2026-04-30 19:56 32.46056 -78.70726 36886 ft 532 kts 110°
2026-04-30 19:56 32.43405 -78.62547 36885 ft 532 kts 110°
2026-04-30 19:57 32.40749 -78.54364 36886 ft 532 kts 110°
2026-04-30 19:57 32.38083 -78.46205 36882 ft 531 kts 110°
2026-04-30 19:58 32.35419 -78.38055 36880 ft 531 kts 110°
2026-04-30 19:58 32.32755 -78.29908 36882 ft 531 kts 110°
2026-04-30 19:59 32.30090 -78.21775 36877 ft 530 kts 110°
2026-04-30 20:00 32.26086 -78.09601 36875 ft 529 kts 110°
2026-04-30 20:00 32.23428 -78.01539 36868 ft 529 kts 110°
2026-04-30 20:01 32.18980 -77.89645 36865 ft 527 kts 124°
2026-04-30 20:01 32.14304 -77.83069 36863 ft 520 kts 142°
2026-04-30 20:02 32.06225 -77.74508 36863 ft 519 kts 142°
2026-04-30 20:03 31.98197 -77.65950 36859 ft 518 kts 141°
2026-04-30 20:03 31.92855 -77.60263 36859 ft 517 kts 142°
2026-04-30 20:04 31.87518 -77.54611 36855 ft 516 kts 142°
2026-04-30 20:05 31.79546 -77.46178 36865 ft 516 kts 142°
2026-04-30 20:05 31.71523 -77.37713 36877 ft 515 kts 142°
2026-04-30 20:06 31.66184 -77.32093 36874 ft 515 kts 142°
2026-04-30 20:06 31.60849 -77.26491 36874 ft 514 kts 142°
2026-04-30 20:07 31.55551 -77.20924 36880 ft 514 kts 142°
2026-04-30 20:08 31.47564 -77.12533 36880 ft 513 kts 142°
2026-04-30 20:08 31.42343 -77.06832 36876 ft 515 kts 133°
2026-04-30 20:08 31.40216 -77.03435 36875 ft 518 kts 121°
2026-04-30 20:09 31.38637 -76.99660 36872 ft 517 kts 109°
2026-04-30 20:09 31.37651 -76.95626 36871 ft 514 kts 97°
2026-04-30 20:09 31.37507 -76.87397 36863 ft 501 kts 75°
2026-04-30 20:10 31.39342 -76.75384 36868 ft 500 kts 74°
2026-04-30 20:11 31.40935 -76.64690 36873 ft 501 kts 74°
2026-04-30 20:11 31.42139 -76.56662 36876 ft 501 kts 73°
2026-04-30 20:12 31.43953 -76.44563 36883 ft 500 kts 73°
2026-04-30 20:13 31.45142 -76.36530 36882 ft 500 kts 73°
2026-04-30 20:13 31.46320 -76.28557 36884 ft 500 kts 73°
2026-04-30 20:14 31.47512 -76.20470 36885 ft 500 kts 73°
2026-04-30 20:14 31.48686 -76.12492 36881 ft 500 kts 73°
2026-04-30 20:15 31.49861 -76.04469 36877 ft 500 kts 73°
2026-04-30 20:15 31.51029 -75.96429 36880 ft 500 kts 74°
2026-04-30 20:16 31.52190 -75.88400 36880 ft 500 kts 74°
2026-04-30 20:16 31.53354 -75.80364 36877 ft 499 kts 74°
2026-04-30 20:17 31.54504 -75.72333 36885 ft 500 kts 74°
2026-04-30 20:17 31.55636 -75.64295 36885 ft 500 kts 74°
2026-04-30 20:18 31.56776 -75.56261 36884 ft 499 kts 74°
2026-04-30 20:18 31.57919 -75.48276 36884 ft 499 kts 74°
2026-04-30 20:19 31.59058 -75.40235 36881 ft 499 kts 74°
2026-04-30 20:19 31.60183 -75.32203 36875 ft 499 kts 74°
2026-04-30 20:20 31.61302 -75.24156 36874 ft 499 kts 75°
2026-04-30 20:20 31.62411 -75.16110 36876 ft 499 kts 75°
2026-04-30 20:21 31.63526 -75.08059 36874 ft 499 kts 75°
2026-04-30 20:21 31.64634 -75.00017 36868 ft 500 kts 75°
2026-04-30 20:22 31.65731 -74.91963 36873 ft 500 kts 75°
2026-04-30 20:22 31.66828 -74.83935 36874 ft 500 kts 75°
2026-04-30 20:23 31.67922 -74.75867 36873 ft 501 kts 75°
2026-04-30 20:23 31.69013 -74.67788 36873 ft 501 kts 75°
2026-04-30 20:24 31.70099 -74.59686 36875 ft 502 kts 75°
2026-04-30 20:24 31.71177 -74.51586 36879 ft 502 kts 76°
2026-04-30 20:25 31.72798 -74.39403 36886 ft 503 kts 76°
2026-04-30 20:26 31.74404 -74.27201 36888 ft 504 kts 76°
2026-04-30 20:26 31.75991 -74.15027 36893 ft 504 kts 76°
2026-04-30 20:27 31.78120 -73.98708 36898 ft 505 kts 76°
2026-04-30 20:28 31.80195 -73.82373 36900 ft 505 kts 76°
2026-04-30 20:30 31.82801 -73.61883 36901 ft 506 kts 76°
2026-04-30 20:31 31.85858 -73.37296 36891 ft 507 kts 77°
2026-04-30 20:32 31.88400 -73.16755 36894 ft 508 kts 77°
2026-04-30 20:33 31.89895 -73.04383 36895 ft 508 kts 77°
2026-04-30 20:34 31.91388 -72.92020 36899 ft 508 kts 77°
2026-04-30 20:35 31.92864 -72.79664 36897 ft 508 kts 77°
2026-04-30 20:35 31.94335 -72.67292 36892 ft 508 kts 77°
2026-04-30 20:36 31.95295 -72.59110 36895 ft 508 kts 77°
2026-04-30 20:37 31.96733 -72.46747 36892 ft 508 kts 77°
2026-04-30 20:37 31.97703 -72.38424 36893 ft 508 kts 78°
2026-04-30 20:38 31.98658 -72.30174 36891 ft 508 kts 78°
2026-04-30 20:38 31.99609 -72.21916 36891 ft 509 kts 78°
2026-04-30 20:39 32.01016 -72.09500 36894 ft 509 kts 78°
2026-04-30 20:40 32.02414 -71.97094 36894 ft 509 kts 78°
2026-04-30 20:40 32.03336 -71.88826 36893 ft 509 kts 78°
2026-04-30 20:41 32.04709 -71.76421 36896 ft 508 kts 78°
2026-04-30 20:41 32.05578 -71.68145 36902 ft 508 kts 79°
2026-04-30 20:42 32.06400 -71.59918 36902 ft 508 kts 79°
2026-04-30 20:43 32.07618 -71.47503 36901 ft 507 kts 79°
2026-04-30 20:43 32.08440 -71.39230 36899 ft 507 kts 79°
2026-04-30 20:44 32.09536 -71.28169 36894 ft 508 kts 79°
2026-04-30 20:44 32.10369 -71.19774 36890 ft 519 kts 79°
2026-04-30 20:45 32.11201 -71.11286 36892 ft 523 kts 80°
2026-04-30 20:45 32.12018 -71.02739 36890 ft 524 kts 80°
2026-04-30 20:46 32.13645 -70.85656 36896 ft 524 kts 80°
2026-04-30 20:47 32.14842 -70.72883 36904 ft 524 kts 80°
2026-04-30 20:48 32.16039 -70.60062 36911 ft 524 kts 80°
2026-04-30 20:48 32.16839 -70.51461 36915 ft 523 kts 81°
2026-04-30 20:49 32.17616 -70.42908 36914 ft 523 kts 81°
2026-04-30 20:50 32.18782 -70.30117 36919 ft 522 kts 81°
2026-04-30 20:50 32.19550 -70.21606 36917 ft 521 kts 81°
2026-04-30 20:51 32.20305 -70.13154 36919 ft 520 kts 81°
2026-04-30 20:51 32.21432 -70.00394 36920 ft 520 kts 81°
2026-04-30 20:52 32.22173 -69.91896 36917 ft 520 kts 81°
2026-04-30 20:53 32.23275 -69.79147 36923 ft 520 kts 81°
2026-04-30 20:53 32.24004 -69.70656 36923 ft 519 kts 81°
2026-04-30 20:54 32.25082 -69.57984 36918 ft 519 kts 81°
2026-04-30 20:55 32.26151 -69.45226 36919 ft 519 kts 82°
2026-04-30 20:55 32.26859 -69.36738 36920 ft 519 kts 82°
2026-04-30 20:56 32.27913 -69.24006 36919 ft 519 kts 82°
2026-04-30 20:57 32.28949 -69.11266 36919 ft 518 kts 82°
2026-04-30 20:57 32.29630 -69.02782 36919 ft 518 kts 82°
2026-04-30 20:58 32.30642 -68.90097 36916 ft 518 kts 82°
2026-04-30 20:58 32.31309 -68.81612 36918 ft 518 kts 82°
2026-04-30 20:59 32.32306 -68.68827 36922 ft 518 kts 82°
2026-04-30 21:00 32.33600 -68.51907 36923 ft 517 kts 82°
2026-04-30 21:01 32.34564 -68.39182 36924 ft 517 kts 82°
2026-04-30 21:02 32.35512 -68.26453 36914 ft 517 kts 82°
2026-04-30 21:02 32.35351 -68.17935 36913 ft 519 kts 94°
2026-04-30 21:03 32.34659 -68.09423 36920 ft 519 kts 94°
2026-04-30 21:03 32.33966 -68.00913 36924 ft 518 kts 94°
2026-04-30 21:04 32.33267 -67.92430 36925 ft 518 kts 94°
2026-04-30 21:04 32.32229 -67.79775 36924 ft 516 kts 94°
2026-04-30 21:05 32.31527 -67.71332 36927 ft 515 kts 94°
2026-04-30 21:05 32.30813 -67.62837 36922 ft 515 kts 95°
2026-04-30 21:06 32.30456 -67.58617 36531 ft 515 kts 95°
2026-04-30 21:06 32.30101 -67.54432 36101 ft 509 kts 95°
2026-04-30 21:06 32.29743 -67.50217 35666 ft 503 kts 95°
2026-04-30 21:06 32.29394 -67.46131 35254 ft 498 kts 95°
2026-04-30 21:07 32.29045 -67.42079 34845 ft 493 kts 95°
2026-04-30 21:07 32.28702 -67.38078 34442 ft 488 kts 95°
2026-04-30 21:07 32.28360 -67.34099 34050 ft 485 kts 95°
2026-04-30 21:07 32.28023 -67.30193 33623 ft 482 kts 95°
2026-04-30 21:08 32.27675 -67.26220 33176 ft 479 kts 96°
2026-04-30 21:08 32.27335 -67.22364 32743 ft 476 kts 96°
2026-04-30 21:08 32.26988 -67.18491 32308 ft 472 kts 96°
2026-04-30 21:08 32.26646 -67.14639 31886 ft 469 kts 96°
2026-04-30 21:09 32.26306 -67.10812 31463 ft 466 kts 96°
2026-04-30 21:09 32.25971 -67.07014 31053 ft 463 kts 96°
2026-04-30 21:09 32.25638 -67.03240 30648 ft 460 kts 97°
2026-04-30 21:09 32.25304 -66.99499 30248 ft 457 kts 97°
2026-04-30 21:10 32.24972 -66.95768 29832 ft 454 kts 97°
2026-04-30 21:10 32.24642 -66.92068 29363 ft 451 kts 97°
2026-04-30 21:10 32.24313 -66.88395 28916 ft 448 kts 97°
2026-04-30 21:10 32.23980 -66.84742 28470 ft 445 kts 97°
2026-04-30 21:11 32.23648 -66.81114 28023 ft 443 kts 97°
2026-04-30 21:11 32.23316 -66.77510 27588 ft 441 kts 97°
2026-04-30 21:11 32.22988 -66.73910 27159 ft 439 kts 97°
2026-04-30 21:11 32.22672 -66.70399 26692 ft 438 kts 97°
2026-04-30 21:12 32.22342 -66.66748 26170 ft 439 kts 97°
2026-04-30 21:12 32.22013 -66.63159 25668 ft 439 kts 97°
2026-04-30 21:12 32.21680 -66.59566 25172 ft 439 kts 97°
2026-04-30 21:12 32.21345 -66.55983 24686 ft 438 kts 97°
2026-04-30 21:13 32.21008 -66.52408 24207 ft 438 kts 97°
2026-04-30 21:13 32.20676 -66.48881 23741 ft 437 kts 97°
2026-04-30 21:13 32.20343 -66.45312 23238 ft 437 kts 97°
2026-04-30 21:13 32.20009 -66.41753 22682 ft 436 kts 97°
2026-04-30 21:14 32.19670 -66.38185 22140 ft 435 kts 98°
2026-04-30 21:14 32.19320 -66.34642 21606 ft 435 kts 98°
2026-04-30 21:14 32.18960 -66.31097 21084 ft 434 kts 98°
2026-04-30 21:14 32.18601 -66.27567 20568 ft 433 kts 98°
2026-04-30 21:15 32.18360 -66.25186 20221 ft 432 kts 98°
2026-04-30 21:15 32.18008 -66.21705 19726 ft 431 kts 97°
2026-04-30 21:15 32.17655 -66.18205 19237 ft 429 kts 97°
2026-04-30 21:15 32.17300 -66.14710 18757 ft 427 kts 97°
2026-04-30 21:16 32.16950 -66.11247 18279 ft 425 kts 97°
2026-04-30 21:16 32.16600 -66.07778 17742 ft 423 kts 97°
2026-04-30 21:16 32.16252 -66.04338 17202 ft 421 kts 97°
2026-04-30 21:16 32.15904 -66.00918 16670 ft 419 kts 97°
2026-04-30 21:17 32.15555 -65.97506 16146 ft 416 kts 97°
2026-04-30 21:17 32.15208 -65.94124 15635 ft 413 kts 97°
2026-04-30 21:17 32.14868 -65.90835 15371 ft 404 kts 97°
2026-04-30 21:17 32.14531 -65.87576 15105 ft 395 kts 97°
2026-04-30 21:18 32.14200 -65.84395 14846 ft 386 kts 97°
2026-04-30 21:18 32.13874 -65.81281 14582 ft 378 kts 98°
2026-04-30 21:18 32.13554 -65.78246 14325 ft 370 kts 98°
2026-04-30 21:18 32.13241 -65.75247 14069 ft 364 kts 97°
2026-04-30 21:19 32.12935 -65.72302 13828 ft 357 kts 97°
2026-04-30 21:19 32.12637 -65.69419 13578 ft 350 kts 97°
2026-04-30 21:19 32.12347 -65.66625 13323 ft 344 kts 97°
2026-04-30 21:19 32.12120 -65.63824 13065 ft 339 kts 91°
2026-04-30 21:20 32.12235 -65.61078 12810 ft 333 kts 83°
2026-04-30 21:20 32.12503 -65.58380 12554 ft 329 kts 83°
2026-04-30 21:20 32.12767 -65.55706 12304 ft 327 kts 83°
2026-04-30 21:20 32.13028 -65.53050 12054 ft 325 kts 83°
2026-04-30 21:21 32.13287 -65.50405 11803 ft 323 kts 83°
2026-04-30 21:21 32.13545 -65.47768 11562 ft 322 kts 83°
2026-04-30 21:21 32.14050 -65.42575 11079 ft 319 kts 82°
2026-04-30 21:22 32.14307 -65.39944 10838 ft 318 kts 82°
2026-04-30 21:22 32.15054 -65.32181 10122 ft 314 kts 82°
2026-04-30 21:23 32.15302 -65.29600 9889 ft 311 kts 82°
2026-04-30 21:23 32.15546 -65.27071 9638 ft 309 kts 82°
2026-04-30 21:23 32.16031 -65.22036 9123 ft 308 kts 82°
2026-04-30 21:24 32.16269 -65.19529 8986 ft 305 kts 82°
2026-04-30 21:24 32.16506 -65.17030 9017 ft 307 kts 82°
2026-04-30 21:24 32.16746 -65.14525 9016 ft 308 kts 82°
2026-04-30 21:24 32.16985 -65.12022 8993 ft 308 kts 82°
2026-04-30 21:25 32.17463 -65.06997 8494 ft 306 kts 82°
2026-04-30 21:25 32.17695 -65.04512 8245 ft 304 kts 82°
2026-04-30 21:25 32.17924 -65.02060 7999 ft 303 kts 82°
2026-04-30 21:26 32.18387 -64.97119 7509 ft 301 kts 82°
2026-04-30 21:26 32.18616 -64.94664 7265 ft 300 kts 82°
2026-04-30 21:27 32.19065 -64.89869 6791 ft 298 kts 82°
2026-04-30 21:27 32.19290 -64.87446 6555 ft 296 kts 82°
2026-04-30 21:27 32.19513 -64.85034 6317 ft 295 kts 82°
2026-04-30 21:28 32.19956 -64.80241 5814 ft 292 kts 82°
2026-04-30 21:28 32.20177 -64.77854 5570 ft 291 kts 82°
2026-04-30 21:28 32.20614 -64.73109 5067 ft 289 kts 82°
2026-04-30 21:29 32.20831 -64.70753 4824 ft 288 kts 82°
2026-04-30 21:29 32.21471 -64.63736 4069 ft 284 kts 83°
2026-04-30 21:30 32.21883 -64.59146 3575 ft 281 kts 83°
2026-04-30 21:31 32.22478 -64.52523 2999 ft 250 kts 82°
2026-04-30 21:31 32.22853 -64.48727 3002 ft 217 kts 75°
2026-04-30 21:32 32.24619 -64.46153 3008 ft 201 kts 19°
2026-04-30 21:32 32.25969 -64.45823 2914 ft 195 kts 354°
2026-04-30 21:32 32.27266 -64.46147 2710 ft 190 kts 339°
2026-04-30 21:32 32.28535 -64.46599 2466 ft 190 kts 340°
2026-04-30 21:33 32.29801 -64.47042 2238 ft 190 kts 339°
2026-04-30 21:33 32.32182 -64.48270 2002 ft 185 kts 317°
2026-04-30 21:33 32.33003 -64.49423 2005 ft 183 kts 298°
2026-04-30 21:34 32.33456 -64.50824 2012 ft 182 kts 282°
2026-04-30 21:34 32.33968 -64.53779 2003 ft 183 kts 280°
2026-04-30 21:34 32.34222 -64.55240 1852 ft 184 kts 281°
2026-04-30 21:35 32.34474 -64.56694 1660 ft 177 kts 281°
2026-04-30 21:35 32.34717 -64.58096 1431 ft 164 kts 282°
2026-04-30 21:35 32.34933 -64.59343 1220 ft 153 kts 281°
2026-04-30 21:35 32.35144 -64.60563 1017 ft 148 kts 281°
2026-04-30 21:36 32.35355 -64.61751 814 ft 146 kts 281°
2026-04-30 21:36 32.35556 -64.62911 630 ft 143 kts 280°
2026-04-30 21:37 32.36133 -64.66281 88 ft 137 kts 279°
2026-04-30 21:37 32.36305 -64.67308 27 ft 108 kts 281°
2026-04-30 21:37 32.36425 -64.67992 27 ft 65 kts 281°
2026-04-30 21:37 32.36494 -64.68398 29 ft 37 kts 282°
2026-04-30 21:38 32.36535 -64.68635 28 ft 24 kts 282°
2026-04-30 21:38 32.36567 -64.68826 28 ft 23 kts 281°
2026-04-30 21:38 32.36597 -64.69014 30 ft 24 kts 281°
2026-04-30 21:38 32.36603 -64.69207 26 ft 23 kts 249°
2026-04-30 21:39 32.36542 -64.69386 29 ft 23 kts 248°
2026-04-30 21:39 32.36481 -64.69559 27 ft 24 kts 247°
2026-04-30 21:39 32.36413 -64.69745 25 ft 25 kts 246°
2026-04-30 21:39 32.36344 -64.69934 27 ft 25 kts 246°
2026-04-30 21:40 32.36283 -64.70118 26 ft 16 kts 248°
2026-04-30 21:40 32.36287 -64.70188 24 ft 9 kts 290°
2026-04-30 21:40 32.36283 -64.70257 26 ft 9 kts 250°
2026-04-30 21:40 32.36266 -64.70312 24 ft 0 kts 247°